Regional Weather Roundup
Issued by NWS Midland/Odessa, TX

Skip options and go directly to product.
Home | Oldest Version | Previous Version | Current Version | All | Graphics & Text | Save Text | Print | Product List | Glossary On

Skip product version selection by date and time.   
806
ASUS44 KMAF 301410
RWRMAF
MIDLAND AREA WEATHER ROUNDUP
NATIONAL WEATHER SERVICE MIDLAND TX
900 AM CDT SAT MAY 30 2015

...IN SOUTHWEST TEXAS AND SOUTHEAST NEW MEXICO...

CITY           SKY/WX    TMP DP  RH WIND       PRES   REMARKS
ALPINE         CLOUDY    55  51  86 NE14      30.37R
ANDREWS        PTSUNNY   59  55  88 SE21      30.14F
ARTESIA        PTSUNNY   63  59  88 N18       30.25R
BIG SPRING     CLOUDY    64  58  79 W6        30.24F
CARLSBAD       PTSUNNY   64  56  75 NW13      30.21R
DRYDEN           N/A     71  59  65 N15G25    30.15R
FORT STOCKTON  LGT RAIN  60  56  86 NE9       30.26R
GUAD PASS      MOSUNNY   60  47  61 NE39      30.24R
HOBBS          SUNNY     59  57  94 N9        30.23S
MARFA          MOSUNNY  N/A N/A N/A NE29G36   30.26S
MIDLAND AIRPK  RAIN      62  58  87 N3        30.25S
MIDLAND INTL   RAIN      61  57  87 W5        30.25R FOG
ODESSA         RAIN      60  56  86 CALM      30.26S FOG
PECOS          CLOUDY    65  54  67 CALM      30.19R
PRESIDIO       CLOUDY    68  56  66 N36G51    30.10R
SEMINOLE       CLOUDY    60  54  79 N10G16    30.23R
SNYDER         MOSUNNY   65  58  77 NW9       30.21S
WINK           CLOUDY    64  57  78 W5        30.16R
$$
...OTHER STATIONS IN TEXAS...

CITY           SKY/WX    TMP DP  RH WIND       PRES   REMARKS
ABILENE        MOSUNNY   66  61  84 NW10      30.15R
AMARILLO       CLOUDY    56  50  80 N12       30.30R
AUSTIN         PTSUNNY   77  70  79 N9        30.06S
BROWNSVILLE    MOSUNNY   81  77  88 E8        29.98R
CORPUS CHRISTI MOSUNNY   81  74  79 SE5       30.00R
DALLAS FTW     CLOUDY    65  65 100 NE12      30.03F
DEL RIO        CLOUDY    74  68  81 NE9       30.04R
EL PASO        MOSUNNY   71  52  50 NE15      30.16R
HOUSTON INT    PTSUNNY   80  75  84 CALM      30.04R
LUBBOCK        CLOUDY    59  55  87 NE20G25   30.22F
SAN ANGELO     MOSUNNY   68  60  75 N8        30.16R
SAN ANTONIO    PTSUNNY   78  71  79 N6        30.07R
WACO           CLOUDY    66  64  93 SE12      30.04F
WICHITA FALLS  NOT AVBL
$$
...OTHER LOCATIONS IN NEW MEXICO...

CITY           SKY/WX    TMP DP  RH WIND       PRES   REMARKS
ALAMAGORDO     SUNNY     66  41  39 S7        30.18R
ALBUQUERQUE    MOSUNNY   63  47  55 E16       30.29R
CANNON AFB     PTSUNNY   56  52  88 NE16      30.30R
CLOVIS         CLOUDY    55  50  82 NE17G24   30.30S
HOLLOMAN AFB   SUNNY     65  46  49 SE8       30.15R
ROSWELL        MOSUNNY   63  55  75 N14       30.25R
RUIDOSO        SUNNY     54  45  71 SE12      30.39R
SANTA FE       SUNNY     57  43  59 S10       30.34R
TRUTH OR CONSE SUNNY     66  45  46 NE18G29   30.22R
TUCUMCARI      CLOUDY    56  51  84 E12       30.30S
$$

USA.gov is the U.S. government's official web portal to all federal, state and local government web resources and services.